Location: Unspecified
(40.7945°N, 0.0000°E)
Time: 19:54:40
(UTC+00:00)

Explorer 7 - Pass Details

Date: 24 June 2021
Orbit: 484 x 676 km, 50.3° (Epoch: 28 July)

Event Time Altitude Azimuth Distance (km) Brightness Sun altitude
Rises 22:34:55 0° 297° (WNW) 3,025 11.3 -22.7°
Reaches altitude 10° 22:37:37 10° 309° (NW) 2,100 10.6 -22.8°
Maximum altitude 22:41:46 27° 7° (N) 1,256 9.2 -23.1°
Drops below altitude 10° 22:45:48 10° 66° (ENE) 2,034 9.7 -23.4°
Enters shadow 22:48:14 - 78° (ENE) 2,866 10.4 -23.5°
